DUKOVANY Weather Reports


Display with metric or nautical units.
time (UTC)temp
F
wind
direction
speed
MPH
gust
MPH
rain 1hr
in
rain 24hr
in
rain mn
in
humidity
%
barometer
mb
20260506132105 72 130 18.0 31.0 0.00 0.00 0.00 43
20260506122104 70 170 14.0 0.0 0.00 0.00 0.00 43
20260506112049 72 140 12.0 0.0 0.00 0.00 0.00 40
20260506102251 72 190 12.0 0.0 0.00 0.00 0.00 37
20260506092035 66 210 7.0 0.0 0.00 0.00 0.00 48
20260506082049 64 200 9.0 0.0 0.00 0.00 0.00 55
20260506072051 63 230 7.0 0.0 0.00 0.00 0.00 63
20260506062124 59 240 7.0 0.0 0.00 0.00 0.00 72
20260506042305 52 220 7.0 0.0 0.00 0.00 0.00 87
20260506032051 55 280 5.0 0.0 0.00 0.00 0.00 82
20260506022049 55 270 7.0 0.0 0.00 0.00 0.00 82
20260506012150 59 330 9.0 0.0 0.00 0.00 0.00 67
20260506002048 57 320 7.0 0.0 0.00 0.00 0.00 67
20260505232048 57 50 5.0 0.0 0.00 0.00 0.00 62
20260505222048 59 90 9.0 0.0 0.00 0.00 0.00 58
20260505212139 59 100 9.0 0.0 0.00 0.00 0.00 58
20260505202105 61 90 7.0 0.0 0.00 0.00 0.00 55
20260505192122 63 100 9.0 0.0 0.00 0.00 0.00 51
20260505182105 68 120 16.0 0.0 0.00 0.00 0.00 40
20260505172122 72 130 18.0 0.0 0.00 0.00 0.00 35
20260505162237 75 120 14.0 0.0 0.00 0.00 0.00 29
20260505152104 77 130 12.0 22.0 0.00 0.00 0.00 25